Flag for U.S.A. Weather past 2 weeks in Kodiak, Alaska, U.S.A.

Now
34 °F

Broken clouds.


Feels Like: 34 °F
Forecast: 31 / 42 °F
Wind: No wind

Location: Kodiak Weather Reporting Station

Current Time: Dec 17, 2014 at 12:48:01 PM

Latest Report: Dec 17, 2014 at 11:53 AM


Visibility: 9 mi

Pressure: 29.46 "Hg

Humidity: 97%

Dew point: 33 °F

Location of KodiakLocation

Historic Weather in Kodiak — Graph

°F

Kodiak temperature yesterday

Maximum temperature yesterday: 39 °F (at 11:53 AM)
Minimum temperature yesterday: 30 °F (at 11:53 PM)
Average temperature yesterday: 36 °F

Past Weeks' High & Low Weather Summary

 TemperatureHumidityPressure
High46 °F (Dec 7, 2:53 AM)100% (Dec 4, 11:53 AM)29.75 "Hg (Dec 4, 11:53 AM)
Low25 °F (Dec 17, 3:53 AM)60% (Dec 16, 6:53 PM)28.48 "Hg (Dec 8, 6:53 PM)
Average39 °F91%29.21 "Hg
* Reported Dec 2 10:53 AM — Dec 17 10:53 AM, Kodiak, Weather by CustomWeather, © 2014

Note: Actual official high and low records may vary slightly from our data, if they occured in-between our weather recording intervals... More about our weather records

Advertising

Kodiak weather history for previous 24 hours

 ConditionsComfort  
Time TempWeatherWind HumidityBarometerVisibility
10:53 AM
Dec 17
30 °FLight snow. Broken clouds.6 mph89%29.47 "Hg8 mi
9:53 AM29 °FBroken clouds.5 mph89%29.47 "Hg10 mi
8:53 AM28 °FPartly cloudy.6 mph93%29.47 "Hg10 mi
7:53 AM29 °FMostly cloudy.No wind89%29.47 "Hg10 mi
6:53 AM27 °FPassing clouds.5 mph89%29.48 "Hg10 mi
5:53 AM26 °FClear.6 mph88%29.48 "Hg10 mi
4:53 AM26 °FClear.7 mph88%29.48 "Hg10 mi
3:53 AM25 °FClear.6 mph88%29.48 "Hg10 mi
2:53 AM27 °FClear.6 mph85%29.48 "Hg10 mi
1:53 AM28 °FClear.5 mph85%29.47 "Hg10 mi
12:53 AM29 °FClear.5 mph82%29.47 "Hg10 mi
11:53 PM
Dec 16
30 °FPassing clouds.6 mph82%29.45 "Hg10 mi
10:53 PM35 °FPassing clouds.6 mph67%29.41 "Hg10 mi
9:53 PM31 °FPassing clouds.6 mph79%29.39 "Hg10 mi
8:53 PM35 °FPassing clouds.5 mph67%29.37 "Hg10 mi
7:53 PM37 °FPassing clouds.7 mph60%29.35 "Hg10 mi
6:53 PM37 °FPassing clouds.7 mph60%29.32 "Hg10 mi
5:53 PM35 °FPassing clouds.7 mph70%29.30 "Hg10 mi
4:53 PM37 °FPartly cloudy.8 mph67%29.27 "Hg10 mi
3:53 PM39 °FBroken clouds.9 mph65%29.23 "Hg10 mi
2:53 PM39 °FBroken clouds.6 mph65%29.21 "Hg10 mi
1:53 PM39 °FBroken clouds.9 mph70%29.18 "Hg10 mi
12:53 PM38 °FBroken clouds.9 mph73%29.16 "Hg10 mi
Weather by CustomWeather, © 2014

See weather overviewHow to use our weather pages